Wetbulb
47.04 46.74 45.75 45.51 45.44 44.70 43.30 41.85 38.61 34.48 36.16 42.07 42.77 46.65 47.56 48.45 48.05 49.04 48.54 47.18 44.93 44.83 45.40 45.92 46.89 46.99 47.14 47.36 47.12 47.04 46.51 46.60 47.82 49.01 49.53 51.01 53.68 54.34
45.94 45.10 44.66 44.28 43.98 44.12 43.32 42.74 41.73 39.07 35.46 41.70 42.65 44.77 46.90 46.80 46.73 47.09 47.00 45.03 45.14 44.25 44.29 44.14 44.44 45.11 44.72 45.01 45.32 45.83 46.15 45.90 45.60 45.91 46.72 47.90 51.16 52.73
45.41 44.70 43.99 43.71 42.66 42.56 42.79 42.43 41.43 40.90 38.48 40.41 43.25 44.89 44.53 44.85 45.34 46.35 45.48 44.97 45.57 43.83 42.92 42.98 41.93 42.30 42.87 43.23 43.43 44.23 44.72 45.05 45.13 45.38 46.40 48.92 49.37 50.32
44.39 44.25 43.38 42.86 43.15 42.98 41.77 41.52 40.69 41.30 39.76 38.10 40.85 41.28 42.24 44.14 44.18 42.97 42.89 43.47 43.36 43.17 41.39 41.19 41.26 41.20 41.61 41.96 42.33 42.78 43.04 43.43 43.59 44.61 44.93 44.69 45.06 46.11
44.35 43.73 43.39 42.52 41.52 40.30 40.24 39.14 39.55 39.36 39.58 38.12 38.43 41.40 41.56 42.74 41.28 41.04 41.10 41.20 42.23 41.70 40.43 40.67 41.20 42.11 42.28 41.40 41.56 41.81 42.11 42.45 42.10 41.98 41.96 42.47 43.40 45.20
44.44 43.90 43.34 41.16 39.81 38.96 37.93 37.77 37.95 37.64 37.21 37.77 38.07 38.60 39.89 40.57 39.60 36.51 36.94 39.95 39.24 40.67 41.33 40.64 40.95 40.77 40.83 41.29 41.40 41.75 41.67 41.96 42.22 42.08 41.74 41.22 41.40 42.97
44.04 43.48 43.37 39.84 38.61 36.43 35.99 36.15 36.77 36.61 36.42 35.50 36.46 36.89 36.51 36.01 33.77 35.78 34.97 37.49 38.00 39.75 38.59 38.41 38.87 39.46 40.42 41.58 42.74 42.24 41.59 40.92 41.11 41.38 41.51 41.18 41.50 42.08
42.22 42.73 42.64 41.27 39.61 36.12 35.49 34.91 34.90 36.79 35.91 36.31 35.28 33.57 34.05 33.77 34.71 34.29 34.58 33.58 31.41 39.07 36.39 36.25 39.46 38.38 39.83 42.17 41.78 40.75 40.62 40.75 40.95 40.97 41.21 41.47 41.72 41.12
41.93 41.83 40.67 40.35 37.90 35.49 35.03 35.87 36.70 35.75 35.22 35.42 33.52 32.88 31.87 34.05 34.39 33.93 33.72 33.40 33.79 36.91 37.18 34.46 38.01 36.69 39.05 40.27 39.87 40.40 40.76 40.92 41.54 41.55 41.19 40.70 40.29 39.61
41.90 41.54 39.49 38.52 35.04 33.40 35.02 37.27 37.94 38.01 37.27 35.09 35.33 34.66 35.81 36.00 35.70 35.57 34.92 35.14 36.88 38.99 39.09 33.11 37.80 35.26 37.33 38.88 39.87 41.67 40.63 40.12 41.07 40.54 39.94 39.73 39.56 39.51
41.51 41.06 38.75 36.70 31.86 32.49 34.57 35.27 35.19 35.96 35.62 35.47 35.81 35.62 35.44 35.39 35.82 35.80 33.70 32.59 31.91 34.26 39.14 35.89 35.17 34.28 35.36 38.08 42.06 39.13 39.73 40.05 39.23 39.43 39.29 39.32 39.24 39.17
40.95 40.23 32.64 32.79 31.89 32.37 33.55 34.68 31.92 33.44 33.83 36.45 37.22 37.64 37.65 37.56 35.93 37.34 35.85 32.25 32.35 31.87 37.92 35.11 34.07 34.20 31.70 38.07 36.91 39.90 40.10 37.96 37.98 38.77 38.31 38.48 38.62 39.12
38.71 38.08 37.66 32.12 32.33 33.12 33.09 34.32 32.00 33.04 34.64 36.15 36.73 37.12 37.10 36.98 37.27 37.46 37.90 36.20 33.58 33.79 37.97 37.33 34.62 34.01 33.28 32.42 35.19 38.96 38.14 37.59 37.30 37.60 37.39 37.70 38.04 38.53
37.06 36.96 35.51 32.40 33.04 33.32 34.01 32.15 32.04 32.76 35.98 35.09 35.23 34.75 34.39 34.86 35.27 36.44 37.49 38.20 38.90 37.99 40.06 39.33 36.05 34.38 32.72 32.23 31.62 35.63 37.41 37.63 36.66 35.67 35.50 36.85 37.18 38.06
35.09 33.98 32.16 33.10 33.49 33.93 33.17 32.55 32.68 36.65 35.24 33.91 33.59 34.26 34.87 35.89 35.74 35.81 36.63 36.68 37.31 39.36 39.69 39.71 38.53 37.60 35.21 32.75 31.62 33.71 33.98 35.39 37.60 35.41 35.31 35.38 35.73 37.19
33.18 36.68 33.26 31.26 31.50 32.65 34.60 35.14 35.22 35.12 33.86 33.75 33.82 35.32 35.75 34.56 33.81 34.47 33.03 33.59 33.80 34.85 38.25 39.36 39.19 38.96 35.50 35.13 33.28 33.77 35.00 32.07 35.00 35.30 34.69 35.77 36.44 37.42
29.14 35.23 33.97 33.26 32.87 33.30 33.72 33.90 34.34 33.46 32.51 32.97 33.07 33.41 32.62 32.36 32.22 33.94 32.80 32.24 30.72 31.49 33.59 36.55 38.29 39.38 38.19 36.20 32.52 34.97 34.17 33.83 34.92 33.08 33.03 33.32 35.24 35.98
33.29 32.43 31.48 31.32 30.78 30.93 30.54 30.53 31.30 30.99 31.34 31.42 31.52 32.11 30.68 30.04 30.25 32.04 32.35 31.29 29.85 30.44 32.03 34.37 35.49 34.46 35.29 37.17 35.43 34.65 34.01 33.99 33.91 32.26 32.53 31.58 32.84 35.41
31.87 31.18 30.56 30.34 30.22 30.39 29.83 29.56 28.70 30.51 30.40 30.02 30.14 29.88 29.89 29.46 29.57 29.86 29.94 30.26 29.70 30.53 31.31 33.74 33.70 33.12 30.80 30.63 35.92 34.79 32.80 32.36 32.73 30.85 31.51 31.28 31.03 32.93
31.12 30.09 29.59 29.75 29.63 29.12 29.12 28.46 28.30 28.86 28.81 28.36 29.09 28.63 28.71 28.34 28.44 28.48 29.20 28.99 29.20 30.20 30.52 32.56 33.41 33.42 32.13 31.64 32.10 35.41 33.14 32.12 31.21 29.73 29.78 32.81 34.39 32.41
30.00 29.61 29.70 29.26 29.00 28.78 28.48 28.08 28.01 27.37 27.84 27.57 27.77 27.52 27.70 28.00 28.23 28.52 29.23 28.74 29.03 29.69 28.91 30.31 33.51 33.64 37.05 37.12 33.06 33.64 36.40 33.44 32.32 29.84 29.71 30.48 31.26 29.56
29.79 29.29 28.89 28.64 28.15 27.70 27.56 27.43 27.31 27.03 26.41 26.10 26.44 26.99 27.66 28.33 27.47 27.80 28.81 28.06 28.63 29.10 29.72 32.21 34.57 35.28 34.66 33.34 31.79 32.83 34.44 35.75 35.05 31.55 30.74 29.88 28.73 26.87
29.01 28.85 28.86 27.84 27.19 26.75 26.36 25.80 24.92 24.59 24.27 24.41 25.30 25.23 26.85 27.11 27.23 28.25 28.73 28.34 28.70 28.79 29.02 30.06 32.50 34.03 33.10 32.73 32.51 32.95 33.50 34.04 33.65 32.02 30.89 30.93 30.76 30.76
MSLP
1025.06 1025.10 1024.89 1024.75 1024.64 1024.47 1024.53 1024.22 1023.65 1022.06 1020.98 1019.90 1019.43 1018.88 1018.13 1017.13 1016.32 1015.48 1014.70 1013.84 1013.35 1012.41 1011.45 1010.66 1010.11 1009.48 1008.65 1007.95 1007.28 1006.52 1005.85 1005.23 1004.49 1003.83 1003.34 1002.67 1001.88 1001.34
1025.47 1025.63 1025.49 1025.34 1025.11 1024.84 1024.76 1024.48 1024.08 1023.27 1021.65 1020.78 1019.61 1018.82 1017.87 1017.00 1016.02 1015.49 1014.54 1013.78 1012.56 1011.76 1010.86 1010.16 1009.41 1008.76 1007.98 1006.99 1006.08 1005.26 1004.56 1003.99 1003.46 1002.92 1002.24 1001.62 1000.89 1000.36
1025.85 1025.78 1025.76 1025.79 1025.62 1025.39 1024.99 1024.49 1023.89 1023.23 1021.88 1020.51 1019.94 1018.81 1017.90 1016.82 1015.82 1015.08 1014.43 1013.50 1012.25 1011.55 1010.64 1009.50 1008.81 1007.99 1006.94 1005.92 1004.99 1004.11 1003.33 1002.78 1002.26 1001.71 1001.13 1000.35 999.92 999.38
1026.08 1025.91 1025.91 1025.85 1025.57 1025.44 1025.22 1024.54 1024.07 1023.52 1022.64 1020.72 1019.94 1018.73 1017.93 1016.81 1015.89 1015.08 1014.11 1013.23 1012.30 1011.06 1010.29 1009.39 1008.15 1006.74 1005.72 1004.78 1003.85 1002.93 1002.08 1001.36 1000.89 1000.41 999.90 999.46 998.97 998.35
1026.35 1026.13 1026.00 1026.12 1025.96 1025.96 1025.57 1025.10 1024.34 1023.78 1023.12 1021.99 1019.80 1019.12 1017.90 1017.01 1015.82 1014.94 1014.28 1013.02 1012.03 1011.02 1009.69 1008.45 1006.96 1005.80 1004.70 1003.92 1002.85 1001.86 1000.98 1000.21 999.51 998.97 998.49 998.05 997.62 997.14
1026.38 1026.28 1026.27 1026.47 1026.67 1026.37 1025.94 1025.34 1024.71 1024.06 1023.36 1022.16 1020.80 1019.27 1018.21 1016.98 1016.79 1015.78 1013.05 1013.14 1011.50 1010.28 1008.98 1008.12 1006.53 1005.51 1004.01 1003.04 1001.85 1000.84 999.92 999.18 998.48 997.92 997.35 996.93 996.46 996.00
1026.34 1026.20 1026.13 1026.73 1026.80 1027.00 1026.60 1025.91 1025.18 1024.23 1023.32 1022.37 1021.04 1019.81 1018.57 1017.48 1017.02 1016.06 1014.77 1012.60 1011.53 1009.98 1008.54 1007.92 1005.82 1004.57 1003.25 1001.91 1000.53 999.60 998.93 998.32 997.46 996.74 996.15 995.68 995.20 994.78
1026.39 1026.24 1026.09 1026.05 1026.34 1026.58 1026.40 1025.92 1025.36 1024.38 1023.51 1022.42 1021.66 1020.66 1019.37 1018.77 1017.57 1016.64 1015.05 1013.04 1010.02 1010.08 1008.57 1006.86 1006.04 1004.13 1002.94 1001.51 1000.17 999.42 998.42 997.32 996.19 995.23 994.79 994.46 994.14 993.78
1026.58 1026.40 1026.23 1026.19 1026.81 1026.92 1026.20 1025.14 1024.23 1023.89 1023.57 1023.27 1022.12 1021.58 1020.31 1019.21 1017.97 1016.24 1015.23 1013.91 1011.83 1009.55 1008.25 1006.54 1005.43 1003.95 1002.83 1001.26 999.84 998.68 997.52 996.70 995.39 994.62 994.05 993.65 993.35 992.96
1026.60 1026.53 1026.77 1026.77 1027.60 1027.75 1026.57 1025.16 1024.19 1023.49 1023.17 1023.31 1022.56 1021.45 1020.37 1019.11 1018.25 1016.86 1015.10 1013.37 1011.73 1009.81 1008.50 1006.31 1005.00 1003.51 1002.24 1001.04 999.37 998.13 997.47 996.44 995.68 994.75 994.11 993.27 992.82 992.31
1026.45 1026.60 1027.13 1027.43 1028.41 1027.95 1026.76 1025.41 1024.54 1023.74 1023.49 1022.82 1021.89 1020.77 1019.63 1018.60 1017.61 1016.12 1014.56 1012.95 1010.95 1009.41 1008.09 1006.77 1005.02 1003.36 1002.06 1000.31 999.17 998.34 997.23 996.43 995.57 994.65 993.93 993.23 992.46 991.68
1026.69 1026.71 1028.08 1028.29 1028.30 1027.85 1026.97 1025.76 1025.02 1024.29 1023.47 1021.88 1020.85 1019.74 1018.90 1017.93 1017.03 1016.15 1014.65 1012.94 1011.20 1009.00 1007.88 1006.78 1005.28 1004.10 1001.28 1000.30 999.85 998.48 997.47 996.69 995.74 994.72 993.95 992.94 992.03 991.18
1027.07 1027.17 1027.36 1028.25 1027.97 1027.42 1026.97 1026.17 1025.76 1024.81 1023.42 1022.34 1020.99 1019.95 1019.06 1017.89 1016.73 1015.80 1014.70 1013.32 1011.36 1009.83 1008.21 1007.10 1005.55 1004.38 1003.36 1001.13 999.70 998.45 997.88 996.53 995.75 994.87 993.86 992.75 991.87 991.22
1027.61 1027.80 1027.99 1028.14 1027.62 1027.01 1026.49 1026.08 1025.33 1024.49 1023.32 1022.16 1021.09 1020.18 1019.20 1017.97 1016.88 1015.73 1014.52 1013.20 1011.78 1010.08 1008.06 1007.03 1005.76 1004.88 1003.34 1001.68 1000.40 998.85 997.83 996.76 996.09 995.13 994.06 992.85 991.56 990.56
1028.50 1028.45 1028.33 1027.79 1027.15 1026.51 1026.13 1025.64 1024.76 1023.97 1023.19 1022.27 1021.41 1020.46 1019.67 1018.43 1017.12 1015.78 1014.41 1012.83 1011.03 1009.62 1008.18 1006.88 1005.90 1004.77 1003.71 1002.40 1001.28 999.68 998.01 996.54 995.97 994.99 993.87 992.89 991.89 990.69
1028.63 1027.78 1027.91 1027.75 1027.10 1026.64 1025.85 1025.31 1024.73 1024.31 1023.65 1022.84 1021.93 1020.88 1019.78 1018.49 1017.21 1016.04 1014.59 1013.07 1011.46 1009.43 1008.10 1006.93 1005.79 1004.62 1003.36 1002.38 1001.66 1000.21 999.17 998.03 996.33 995.33 994.29 992.85 991.78 990.95
1029.49 1027.87 1027.73 1027.39 1026.84 1026.40 1026.01 1025.63 1025.13 1024.67 1024.02 1023.40 1022.45 1021.13 1020.11 1019.05 1017.53 1016.29 1015.07 1013.62 1012.24 1010.40 1008.48 1006.93 1005.71 1004.70 1003.45 1002.33 1001.57 1000.55 999.49 998.24 997.01 995.68 994.43 993.05 991.95 991.19
1028.53 1028.15 1028.04 1027.84 1027.43 1026.97 1026.58 1026.13 1025.67 1025.16 1024.67 1023.94 1023.02 1021.86 1020.99 1019.81 1018.33 1016.76 1015.55 1014.23 1012.76 1011.18 1009.49 1007.68 1006.00 1004.27 1002.95 1001.75 1001.62 1000.71 999.84 998.77 997.46 996.22 995.03 993.91 992.38 991.65
1028.70 1028.45 1028.38 1028.29 1027.95 1027.60 1027.31 1026.86 1026.34 1025.87 1025.33 1024.66 1023.63 1022.66 1021.72 1020.53 1019.00 1017.57 1016.22 1014.94 1013.31 1011.88 1010.33 1008.61 1006.79 1005.33 1003.49 1002.15 1001.24 1001.00 1000.31 999.54 998.13 996.60 995.65 994.61 993.73 993.11
1028.91 1028.75 1028.79 1028.69 1028.47 1028.19 1027.90 1027.52 1027.10 1026.49 1025.93 1025.25 1024.21 1023.46 1022.45 1021.20 1019.63 1018.35 1017.05 1015.73 1014.18 1012.44 1010.76 1009.12 1007.53 1006.19 1004.75 1003.58 1002.25 1001.39 1000.82 1000.27 999.29 997.95 996.31 995.19 994.59 994.52
1029.09 1029.11 1029.18 1029.13 1029.02 1028.76 1028.50 1028.18 1027.78 1027.21 1026.61 1025.87 1024.92 1024.03 1023.09 1021.85 1020.37 1019.17 1017.76 1016.45 1014.94 1013.39 1011.68 1010.04 1008.62 1007.21 1005.69 1004.30 1002.77 1001.84 1000.92 1000.66 1000.45 999.72 998.30 996.19 995.55 995.34
1029.38 1029.46 1029.56 1029.60 1029.52 1029.31 1028.98 1028.71 1028.23 1027.68 1027.06 1026.39 1025.58 1024.75 1023.73 1022.51 1021.19 1019.83 1018.54 1017.21 1015.69 1014.41 1012.91 1011.10 1009.15 1007.40 1006.10 1005.22 1004.03 1002.88 1001.78 1000.93 1000.71 1000.49 999.64 998.84 997.90 997.26
1029.79 1029.83 1029.91 1030.02 1029.94 1029.80 1029.49 1029.22 1028.81 1028.39 1027.87 1027.21 1026.31 1025.38 1024.16 1022.82 1021.93 1020.62 1019.27 1018.06 1016.66 1015.09 1013.62 1011.71 1009.97 1008.45 1007.20 1006.07 1005.05 1003.90 1002.83 1001.72 1001.15 1000.97 1000.81 1000.09 999.49 999.02
Wind_Speed
8 9 8 8 8 8 8 8 10 13 14 12 15 16 13 14 17 18 19 26 31 31 24 25 23 25 29 29 30 32 33 33 33 32 32 32 30 28
7 10 9 8 9 8 9 10 10 11 13 15 13 18 16 15 18 19 19 28 26 28 23 26 28 25 32 33 33 33 32 31 32 33 34 34 30 29
8 8 10 10 8 8 8 9 10 11 14 13 14 16 20 19 19 17 17 19 16 26 30 28 32 33 32 33 32 31 30 30 30 31 32 30 31 31
8 8 9 7 9 11 10 12 11 13 13 21 17 16 18 19 18 21 17 16 17 23 32 33 34 35 33 31 31 32 32 31 28 27 29 32 33 33
7 8 9 11 10 11 12 12 12 12 13 13 16 14 15 15 18 19 18 18 15 27 30 30 32 31 30 34 33 32 29 28 30 27 28 27 27 28
6 7 8 10 11 12 12 14 14 13 14 12 14 15 15 17 14 16 20 13 17 17 20 21 28 34 33 31 30 29 29 28 24 23 21 22 24 24
6 7 8 5 7 7 10 13 15 12 12 13 14 15 15 16 18 16 17 18 16 16 17 15 18 17 18 23 24 25 24 28 29 27 26 25 22 20
7 8 9 9 11 15 15 17 17 14 15 13 12 16 20 17 16 16 17 18 18 11 18 16 15 17 16 15 27 29 27 29 30 26 23 22 20 20
6 8 9 9 13 15 17 16 12 10 11 14 17 16 20 19 20 19 19 18 17 18 16 17 13 16 15 17 30 28 26 25 27 21 19 16 17 19
6 7 9 11 14 16 16 15 16 16 16 14 15 17 16 18 17 17 21 19 16 15 15 16 13 15 15 16 26 18 24 25 19 22 20 18 19 21
6 7 7 11 16 18 15 15 17 15 17 21 20 20 19 21 19 14 14 15 16 16 15 13 13 16 15 11 10 28 22 20 25 20 21 21 20 20
6 6 14 13 14 15 13 14 16 16 18 19 17 18 19 18 21 16 15 16 16 16 12 13 14 12 13 5 14 12 12 22 23 19 23 23 22 10
5 6 7 14 16 17 13 13 15 17 15 14 13 13 14 15 14 15 17 16 14 15 17 13 10 12 8 15 8 11 14 13 10 13 21 23 23 17
6 6 8 13 16 15 10 14 17 11 10 12 12 13 14 14 14 15 18 17 15 19 18 17 8 11 10 12 11 12 12 13 9 11 12 16 20 18
5 7 12 12 12 9 11 12 11 10 11 12 13 13 13 14 17 15 17 21 19 17 15 19 13 14 12 10 10 12 18 14 9 13 13 12 11 10
5 5 5 7 6 6 8 9 10 10 11 12 13 13 13 14 14 14 14 14 15 15 19 17 18 15 13 11 9 10 13 12 15 14 13 12 10 9
8 4 6 7 8 9 9 10 10 11 11 12 13 14 14 14 13 15 14 15 14 16 17 16 18 17 13 9 6 10 13 13 14 15 14 12 10 9
3 5 6 7 8 10 10 11 11 12 12 12 12 13 14 15 15 15 15 15 15 16 16 17 17 15 14 6 6 9 9 11 15 16 13 11 8 9
4 5 6 7 8 9 9 10 11 11 15 12 12 13 13 14 17 15 15 15 16 16 16 16 16 16 15 16 10 6 9 9 14 15 13 11 7 10
4 5 5 6 7 8 9 10 11 11 11 12 12 13 13 14 15 16 15 17 17 17 16 16 17 17 14 14 11 10 9 9 12 14 15 7 6 13
3 4 5 6 7 8 8 9 10 11 11 11 12 12 13 14 14 15 16 22 20 15 18 17 17 23 13 12 13 11 12 8 14 14 14 9 7 11
3 4 4 5 6 7 8 8 9 10 11 11 12 12 12 13 14 16 15 17 16 16 15 15 17 15 14 13 15 14 12 9 7 20 23 15 8 9
2 3 3 4 5 6 7 8 9 10 11 11 11 12 13 13 14 13 14 15 15 16 18 16 15 15 14 15 16 11 18 12 6 10 13 22 21 20
Wind_Direction
28 17 5 13 2 1 356 335 330 323 323 319 321 326 316 314 317 313 322 315 319 304 303 300 302 302 304 302 298 297 294 294 293 291 288 287 285 286
28 19 12 8 7 1 349 335 334 320 308 319 320 319 323 319 321 323 316 311 309 305 313 316 308 310 305 300 297 293 290 286 289 288 284 279 279 280
23 18 20 14 1 352 337 339 327 325 312 316 316 322 321 321 321 323 317 313 315 318 311 311 315 308 301 298 295 293 288 284 284 284 285 280 282 281
19 12 18 4 357 357 343 340 332 326 324 317 325 318 320 322 320 323 320 315 318 312 317 312 306 302 298 295 293 291 285 281 279 275 279 279 277 275
13 7 7 5 5 351 345 340 333 333 325 319 314 320 318 320 329 321 320 318 316 315 309 305 302 304 307 309 301 300 296 285 284 276 276 274 274 271
13 5 12 5 1 350 343 337 336 327 322 319 317 316 321 328 326 323 317 318 318 311 309 316 306 309 307 305 298 295 294 291 289 293 281 279 276 275
10 5 19 43 15 32 346 335 327 326 322 322 315 319 322 326 328 322 312 316 319 314 316 316 312 308 310 304 296 293 298 299 292 287 284 283 279 276
3 5 357 24 1 358 336 316 297 314 321 320 322 317 315 320 316 317 314 321 316 314 314 310 313 308 308 305 309 309 306 299 296 288 278 279 279 288
5 4 359 11 24 349 338 312 323 314 295 340 323 322 313 313 316 315 319 312 311 311 311 312 313 310 315 312 311 308 305 310 324 328 307 287 287 287
9 22 6 4 22 348 328 336 341 338 357 332 320 309 302 307 306 311 310 308 303 308 318 307 320 311 316 311 305 309 325 318 326 324 319 308 297 288
18 41 17 8 1 342 335 338 343 337 337 316 314 308 303 309 316 316 318 318 317 320 320 312 324 313 319 305 318 326 328 326 331 327 327 319 312 308
18 52 78 25 344 336 340 344 341 334 324 324 329 331 332 328 326 328 322 321 319 319 324 313 326 324 319 310 322 321 333 332 329 326 326 323 320 319
12 4 3 2 330 325 323 347 325 310 318 325 326 330 329 329 331 326 325 322 318 317 316 320 324 322 303 314 317 319 332 331 327 325 329 328 321 314
11 359 351 326 314 310 318 318 300 305 332 332 333 334 331 332 330 325 326 322 319 315 319 327 314 327 315 314 320 325 332 328 325 329 326 321 322 314
7 317 291 305 311 330 331 316 323 347 340 337 335 332 332 327 327 328 330 328 325 326 328 331 331 328 328 316 314 320 330 334 331 330 327 324 319 316
353 355 341 319 307 327 344 350 349 350 344 339 332 327 329 334 333 336 333 333 328 330 333 334 331 335 328 322 314 321 340 336 329 331 323 319 322 324
312 2 8 0 357 357 358 355 352 350 349 339 334 335 339 335 335 335 337 334 337 333 332 335 337 332 326 312 303 336 337 333 336 334 330 324 328 342
338 21 14 5 357 355 356 352 355 351 346 342 335 340 339 335 335 336 338 339 337 336 334 335 333 337 336 334 236 340 333 335 340 341 337 331 326 355
39 26 17 3 357 356 355 354 352 349 344 342 335 342 337 334 335 338 338 339 338 336 336 333 335 343 336 345 334 42 335 346 344 344 346 336 323 4
33 28 12 3 359 356 357 354 349 347 344 342 337 340 339 335 337 339 339 338 337 337 338 338 340 344 339 340 333 331 49 7 360 346 347 338 353 7
36 30 14 5 0 358 356 352 345 346 341 336 340 338 337 335 337 336 337 340 339 342 340 340 336 331 336 331 345 348 349 50 40 5 349 348 8 21
39 24 14 6 2 358 354 352 345 346 344 341 340 337 334 334 339 334 339 338 340 341 338 333 336 341 351 350 346 345 348 355 29 32 19 32 15 18
48 19 15 9 3 357 353 352 349 346 344 338 338 336 333 336 339 338 338 338 341 343 344 340 343 346 350 352 352 352 354 354 8 27 35 30 50 55